Weather History for Sheboygan, WI

Change the Weather History Date:

Saturday, March 9, 2013

  Actual Average Record
Temperature  
Mean Temperature 29 °F -  
Max Temperature 37 °F 40 °F 64 °F (1977)
Min Temperature 21 °F 23 °F 0 °F (2003)
Degree Days  
Heating Degree Days 36    
Moisture  
Dew Point 28 °F    
Average Humidity 91    
Maximum Humidity 100    
Minimum Humidity 79    
Precipitation  
Precipitation 0.28 in - - ()
Sea Level Pressure  
Sea Level Pressure 30.13 in    
Wind  
Wind Speed 6 mph (South)    
Max Wind Speed 16 mph    
Max Gust Speed 25 mph    
Visibility 5 miles    
Events Fog , Rain    
Averages and records for this station are not official NWS values.
T = Trace of Precipitation, MM = Missing Value Source: NWS Daily Summary

Daily Weather History Graph

Daily Weather History Graph

Search for Another Location

Airport:

Trip Planner

Search our weather history database for the weather conditions in past years. The results will help you decide how hot, cold, wet, or windy it might be!

Date:

Astronomy

Mar. 09, 2013 Rise Set
Actual Time 6:13 AM CST 5:50 PM CST
Civil Twilight 5:45 AM CST 6:19 PM CST
Nautical Twilight 5:11 AM CST 6:52 PM CST
Astronomical Twilight 4:38 AM CST 7:26 PM CST
Moon 4:41 AM CST (3/9) 3:49 PM CST (3/9)
Length of Visible Light 12h 34m
Length of Day
11h 36m
Waning Crescent, 5% of the Moon is Illuminated
Mar 9
Waning Crescent
Mar 11
New
Mar 19
First Quarter
Mar 27
Full
Apr 2
Last Quarter

Hourly Weather History & Observations

Time (CST) Temp. Windchill Dew Point Humidity Pressure Visibility Wind Dir Wind Speed Gust Speed Precip Events Conditions
12:04 AM 24.8 °F - 23.0 °F 93% 30.29 in 0.5 mi Calm Calm - N/A Fog Light Freezing Fog
12:16 AM 23.0 °F - 23.0 °F 100% 30.29 in 0.2 mi Calm Calm - N/A Fog Light Freezing Fog
12:53 AM 21.9 °F 17.2 °F 21.9 °F 100% 30.32 in 0.2 mi South 3.5 mph - N/A Fog Light Freezing Fog
1:01 AM 24.8 °F 19.1 °F 24.8 °F 100% 30.28 in 1.0 mi South 4.6 mph - N/A   Clear
1:09 AM 24.8 °F 20.5 °F 24.8 °F 100% 30.28 in 3.0 mi South 3.5 mph - N/A   Clear
1:35 AM 21.2 °F 16.4 °F 21.2 °F 100% 30.28 in 1.8 mi SSW 3.5 mph - N/A   Clear
1:53 AM 24.1 °F - 21.9 °F 91% 30.30 in 2.5 mi Calm Calm - N/A   Clear
2:05 AM 21.2 °F - 21.2 °F 100% 30.26 in 0.8 mi Calm Calm - N/A   Clear
2:23 AM 23.0 °F - 21.2 °F 93% 30.25 in 2.0 mi Calm Calm - N/A   Clear
2:33 AM 26.6 °F 22.6 °F 24.8 °F 93% 30.24 in 3.0 mi SSW 3.5 mph - N/A   Clear
2:40 AM 24.8 °F 20.5 °F 24.8 °F 100% 30.24 in 1.5 mi SSW 3.5 mph - N/A   Clear
2:48 AM 21.2 °F 16.4 °F 21.2 °F 100% 30.24 in 0.5 mi SSW 3.5 mph - N/A Fog Light Freezing Fog
2:53 AM 21.9 °F 17.2 °F 21.0 °F 96% 30.27 in 1.2 mi SSW 3.5 mph - N/A   Clear
3:09 AM 21.2 °F 16.4 °F 19.4 °F 93% 30.23 in 2.0 mi South 3.5 mph - N/A   Clear
3:25 AM 24.8 °F 20.5 °F 23.0 °F 93% 30.23 in 5.0 mi South 3.5 mph - N/A   Clear
3:53 AM 26.1 °F 21.9 °F 25.0 °F 96% 30.26 in 7.0 mi South 3.5 mph - N/A   Clear
4:53 AM 30.0 °F 24.1 °F 28.0 °F 92% 30.25 in 8.0 mi South 5.8 mph - N/A   Clear
5:53 AM 30.0 °F 22.4 °F 27.0 °F 88% 30.24 in 9.0 mi South 8.1 mph - N/A   Clear
6:53 AM 33.1 °F 25.5 °F 28.0 °F 82% 30.22 in 8.0 mi South 9.2 mph - N/A   Mostly Cloudy
7:53 AM 34.0 °F 25.5 °F 28.0 °F 79% 30.21 in 8.0 mi South 11.5 mph - N/A   Overcast
8:53 AM 34.0 °F 24.6 °F 28.9 °F 82% 30.21 in 8.0 mi South 13.8 mph - N/A   Overcast
9:53 AM 34.0 °F 25.5 °F 28.9 °F 82% 30.18 in 5.0 mi SSE 11.5 mph - 0.00 in Rain Light Rain
10:53 AM 34.0 °F 24.6 °F 30.9 °F 89% 30.14 in 6.0 mi SSE 13.8 mph 20.7 mph 0.01 in   Overcast
11:12 AM 35.6 °F 26.6 °F 30.2 °F 81% 30.09 in 7.0 mi SSE 13.8 mph 21.9 mph N/A   Overcast
11:30 AM 35.6 °F 28.0 °F 32.0 °F 87% 30.08 in 7.0 mi SSE 10.4 mph 21.9 mph N/A   Overcast
11:53 AM 36.0 °F 29.0 °F 32.0 °F 86% 30.10 in 8.0 mi SSE 9.2 mph - N/A   Overcast
12:03 PM 35.6 °F 26.6 °F 32.0 °F 87% 30.07 in 9.0 mi SSE 13.8 mph 20.7 mph N/A   Overcast
12:53 PM 36.0 °F 26.3 °F 32.0 °F 86% 30.07 in 9.0 mi SSE 16.1 mph 25.3 mph N/A   Overcast
1:53 PM 36.0 °F 27.5 °F 30.9 °F 82% 30.05 in 9.0 mi South 12.7 mph 21.9 mph N/A   Overcast
2:53 PM 36.0 °F 27.5 °F 30.9 °F 82% 30.01 in 10.0 mi SSE 12.7 mph 21.9 mph N/A   Overcast
3:53 PM 37.0 °F 28.9 °F 30.9 °F 79% 29.99 in 10.0 mi SSE 12.7 mph 23.0 mph N/A   Overcast
4:53 PM 36.0 °F 27.5 °F 33.1 °F 89% 29.97 in 4.0 mi SSE 12.7 mph 19.6 mph 0.05 in Rain Light Rain
5:53 PM 36.0 °F 28.0 °F 33.1 °F 89% 29.95 in 6.0 mi SSE 11.5 mph 24.2 mph 0.04 in Rain Light Rain
6:53 PM 36.0 °F 28.0 °F 33.1 °F 89% 29.94 in 6.0 mi SSE 11.5 mph - 0.04 in Rain Light Rain
7:06 PM 35.6 °F 27.1 °F 33.8 °F 93% 29.91 in 5.0 mi SSE 12.7 mph 18.4 mph 0.01 in Rain Light Rain
7:45 PM 35.6 °F 26.6 °F 33.8 °F 93% 29.89 in 6.0 mi SSE 13.8 mph 23.0 mph 0.05 in Rain Light Rain
7:53 PM 36.0 °F 27.5 °F 34.0 °F 93% 29.92 in 5.0 mi SSE 12.7 mph 20.7 mph 0.06 in Rain Light Rain
8:53 PM 37.0 °F 29.3 °F 33.1 °F 86% 29.91 in 8.0 mi SSE 11.5 mph - 0.00 in   Overcast
9:53 PM 36.0 °F 29.6 °F 34.0 °F 93% 29.91 in 7.0 mi South 8.1 mph - 0.01 in   Overcast
10:53 PM 36.0 °F 29.0 °F 34.0 °F 93% 29.89 in 5.0 mi SSE 9.2 mph - 0.06 in Rain Light Rain
11:53 PM 36.0 °F 28.5 °F 34.0 °F 93% 29.85 in 5.0 mi South 10.4 mph - 0.01 in Rain Light Rain